Mmabatho, South Africa

7:00 PM SAST on July 26, 2017 (GMT +0200)
Mmabatho

Weather History for FAMM - December, 2012

Change the Weather History Date:

Friday, December 28, 2012

  Actual Average Record
Temperature  
Mean Temperature 76 °F -  
Max Temperature 89 °F - - ()
Min Temperature 64 °F - - ()
Cooling Degree Days 12    
Growing Degree Days 26 (Base 50)    
Moisture  
Dew Point 58 °F    
Average Humidity 53    
Maximum Humidity 77    
Minimum Humidity 25    
Precipitation  
Precipitation 0.00 in - - ()
Sea Level Pressure  
Sea Level Pressure 29.97 in    
Wind  
Wind Speed 7 mph ()    
Max Wind Speed 18 mph    
Max Gust Speed -    
Visibility 9.9 miles    
Events Thunderstorm    
T = Trace of Precipitation, MM = Missing Value Source: Averaged Metar Reports

Daily Weather History Graph

Daily Weather History Graph

Search for Another Location

Airport or City:

Trip Planner

Search our weather history database for the weather conditions in past years. The results will help you decide how hot, cold, wet, or windy it might be!

Date:

Astronomy

Dec. 28, 2012 Rise Set
Actual Time 5:27 AM SAST 7:11 PM SAST
Civil Twilight 5:01 AM SAST 7:37 PM SAST
Nautical Twilight 4:30 AM SAST 8:08 PM SAST
Astronomical Twilight 3:57 AM SAST 8:41 PM SAST
Moon 7:11 PM SAST (12/28) 5:23 AM SAST (12/28)
Length of Visible Light 14h 36m
Length of Day
13h 44m
Full, 100% of the Moon is Illuminated
Dec 28
Full
Dec 28
Full
Jan 5
Last Quarter
Jan 11
New
Jan 19
First Quarter

Hourly Weather History & Observations

Time (SAST) Temp. Heat Index Dew Point Humidity Pressure Visibility Wind Dir Wind Speed Gust Speed Precip Events Conditions
12:00 AM 71.6 °F - 60.8 °F 69% 29.95 in - NNE 8.1 mph - N/A   Unknown
1:00 AM 69.8 °F - 59.0 °F 68% 29.95 in - NNE 8.1 mph - N/A   Unknown
2:00 AM 71 °F - 59 °F 58%  in - NNE 9.2 mph - -  
2:00 AM 69.8 °F - 59.0 °F 68% 29.95 in - NNE 8.1 mph - N/A   Unknown
3:00 AM 69.8 °F - 57.2 °F 64% 29.95 in - NNE 5.8 mph - N/A   Unknown
4:00 AM 69.8 °F - 59.0 °F 68% 29.95 in - NNE 5.8 mph - N/A   Unknown
5:00 AM 67 °F - 58 °F 66%  in 19 mi ENE 4.6 mph - -   Scattered Clouds
5:00 AM 66.2 °F - 57.2 °F 73% 29.98 in - ENE 3.5 mph - N/A   Unknown
6:00 AM 64.4 °F - 57.2 °F 77% 29.98 in 6.2 mi ENE 3.5 mph - N/A   Partly Cloudy
6:41 AM 68.0 °F - 59.0 °F 73% 29.98 in 6.2 mi NE 10.4 mph - N/A   Partly Cloudy
7:00 AM 69.8 °F - 59.0 °F 68% 29.98 in 6.2 mi NNE 10.4 mph - N/A   Partly Cloudy
7:42 AM 75.2 °F - 60.8 °F 61% 30.01 in 6.2 mi NNE 13.8 mph - N/A   Partly Cloudy
8:00 AM 79 °F - 62 °F 46%  in 19 mi NNE 15.0 mph - -   Scattered Clouds
8:00 AM 78.8 °F - 60.8 °F 54% 30.01 in 6.2 mi NNE 15.0 mph - N/A   Partly Cloudy
9:00 AM 78.8 °F - 60.8 °F 54% 30.01 in 6.2 mi NNE 18.4 mph - N/A   Partly Cloudy
10:00 AM 82.4 °F 82.9 °F 60.8 °F 48% 30.01 in - North 12.7 mph - N/A   Clear
11:00 AM 85 °F - 60 °F 33%  in 19 mi North 9.2 mph - -   Scattered Clouds
11:00 AM 84.2 °F 83.8 °F 59.0 °F 42% 29.98 in 6.2 mi North 8.1 mph - N/A   Partly Cloudy
1:00 PM 86.0 °F 84.9 °F 57.2 °F 37% 29.95 in 6.2 mi North 6.9 mph - N/A   Scattered Clouds
2:00 PM 86 °F - 59 °F 29%  in 19 mi North 5.8 mph - -   Scattered Clouds
2:00 PM 86.0 °F 84.9 °F 57.2 °F 37% 29.95 in 6.2 mi North 4.6 mph - N/A   Scattered Clouds
3:00 PM 84.2 °F 83.8 °F 59.0 °F 42% 29.95 in 6.2 mi NNE 12.7 mph - N/A Thunderstorm Thunderstorm
4:00 PM 78.8 °F - 55.4 °F 44% 29.95 in 6.2 mi NW 8.1 mph - N/A   Mostly Cloudy
5:00 PM 80 °F - 58 °F 36%  in 19 mi North 6.9 mph - -   Overcast
5:00 PM 78.8 °F - 57.2 °F 47% 29.92 in 6.2 mi North 6.9 mph - N/A   Mostly Cloudy
6:00 PM 80.6 °F 81.1 °F 59.0 °F 48% 29.92 in 6.2 mi NE 8.1 mph - N/A Thunderstorm Thunderstorm
7:00 PM 77.0 °F - 62.6 °F 61% 29.95 in 6.2 mi South 5.8 mph - N/A   Scattered Clouds
8:00 PM 80 °F - 50 °F 25%  in 19 mi SSW 5.8 mph - -   Scattered Clouds
8:00 PM 78.8 °F - 50.0 °F 36% 29.92 in 6.2 mi SSW 5.8 mph - N/A   Scattered Clouds
9:00 PM 77.0 °F - 53.6 °F 44% 29.95 in - NNE 5.8 mph - N/A   Unknown
10:00 PM 77.0 °F - 59.0 °F 54% 30.01 in - NNE 2.3 mph - N/A   Unknown
11:00 PM 74 °F - 61 °F 54%  in - NE 4.6 mph - -  
11:00 PM 73.4 °F - 60.8 °F 65% 30.04 in - NE 4.6 mph - N/A   Unknown